Orangeburg, SC

5:40 AM EDT on June 28, 2017 (GMT -0400)
Orangeburg Municipal

Weather History for KOGB - February, 2013

Change the Weather History Date:

Monday, February 4, 2013

  Actual Average Record
Temperature  
Mean Temperature 41 °F 48 °F  
Max Temperature 51 °F 59 °F 85 °F (1989)
Min Temperature 30 °F 37 °F 17 °F (1970)
Degree Days  
Heating Degree Days 24 17  
Month to date heating degree days 83 71  
Since 1 July heating degree days 1268 1568  
Cooling Degree Days 0 0  
Month to date cooling degree days 0 0  
Year to date cooling degree days 20 1  
Moisture  
Dew Point 29 °F    
Average Humidity 62    
Maximum Humidity 92    
Minimum Humidity 35    
Precipitation  
Precipitation 0.00 in 0.10 in 1.82 in (2011)
Month to date precipitation T 0.39  
Year to date precipitation 0.84 4.37  
Sea Level Pressure  
Sea Level Pressure 30.09 in    
Wind  
Wind Speed 1 mph (SE)    
Max Wind Speed 7 mph    
Max Gust Speed 9 mph    
Visibility 10 miles    
Events      
T = Trace of Precipitation, MM = Missing Value Source: NWS Daily Summary

Daily Weather History Graph

Daily Weather History Graph

Search for Another Location

Airport or City:

Trip Planner

Search our weather history database for the weather conditions in past years. The results will help you decide how hot, cold, wet, or windy it might be!

Date:

Astronomy

Feb. 04, 2013 Rise Set
Actual Time 7:17 AM EST 5:58 PM EST
Civil Twilight 6:51 AM EST 6:24 PM EST
Nautical Twilight 6:21 AM EST 6:53 PM EST
Astronomical Twilight 5:52 AM EST 7:22 PM EST
Moon 1:47 AM EST (2/4) 12:24 PM EST (2/4)
Length of Visible Light 11h 32m
Length of Day
10h 41m
Last Quarter, 37% of the Moon is Illuminated
Feb 4
Last Quarter
Feb 10
New
Feb 17
First Quarter
Feb 25
Full
Mar 4
Last Quarter

Hourly Weather History & Observations

Time (EST) Temp. Windchill Dew Point Humidity Pressure Visibility Wind Dir Wind Speed Gust Speed Precip Events Conditions
12:53 AM 42.1 °F 40.2 °F 27.0 °F 55% 30.05 in 10.0 mi WNW 3.5 mph - N/A   Clear
1:53 AM 42.1 °F - 27.0 °F 55% 30.04 in 10.0 mi Calm Calm - N/A   Clear
2:53 AM 36.0 °F - 28.0 °F 73% 30.06 in 10.0 mi Calm Calm - N/A   Clear
3:53 AM 33.1 °F - 27.0 °F 78% 30.07 in 10.0 mi Calm Calm - N/A   Clear
5:53 AM 32.0 °F - 28.9 °F 88% 30.09 in 10.0 mi Calm Calm - N/A   Clear
6:53 AM 30.9 °F - 28.0 °F 89% 30.11 in 10.0 mi Calm Calm - N/A   Clear
7:53 AM 33.1 °F - 30.0 °F 89% 30.12 in 10.0 mi Calm Calm - N/A   Clear
8:53 AM 37.9 °F - 32.0 °F 79% 30.14 in 10.0 mi Calm Calm - N/A   Clear
9:53 AM 43.0 °F - 27.0 °F 53% 30.15 in 10.0 mi Calm Calm - N/A   Clear
10:53 AM 46.9 °F - 27.0 °F 46% 30.15 in 10.0 mi ESE 4.6 mph - N/A   Clear
11:53 AM 48.9 °F - 25.0 °F 39% 30.14 in 10.0 mi Calm Calm - N/A   Clear
12:53 PM 51.1 °F - 24.1 °F 35% 30.12 in 10.0 mi Calm Calm - N/A   Clear
1:53 PM 51.1 °F - 25.0 °F 36% 30.09 in 10.0 mi East 3.5 mph - N/A   Clear
2:53 PM 51.1 °F - 24.1 °F 35% 30.10 in 10.0 mi Calm Calm - N/A   Clear
3:53 PM 51.1 °F - 25.0 °F 36% 30.09 in 10.0 mi Calm Calm - N/A   Clear
4:53 PM 50.0 °F - 26.1 °F 39% 30.07 in 10.0 mi SE 4.6 mph - N/A   Clear
5:53 PM 48.0 °F - 30.0 °F 50% 30.07 in 10.0 mi Calm Calm - N/A   Clear
7:53 PM 41.0 °F - 33.1 °F 73% 30.07 in 10.0 mi Calm Calm - N/A   Clear
8:53 PM 39.9 °F - 33.1 °F 77% 30.08 in 10.0 mi Calm Calm - N/A   Clear
9:53 PM 39.0 °F - 34.0 °F 82% 30.09 in 10.0 mi Calm Calm - N/A   Clear
10:53 PM 39.0 °F - 33.1 °F 79% 30.09 in 10.0 mi Calm Calm - N/A   Clear
11:53 PM 42.1 °F 40.2 °F 34.0 °F 73% 30.07 in 10.0 mi SSW 3.5 mph - N/A   Clear